RH
13 12 12 11 11 11 11 11 12 12 13 13 14 14 15 15 16 16 16 16 16 17 18 18 19 20 20 21 21 21 20 19 17 16 15 15 16 16 16 15 15 14 13 13 12 12 11 12 12 12 12 12 12 12 13 14 15 16 16 16 17 19 19 19 19 20 20 19 18 19 18 18 18 19 21 22 19 18 19 18 18 19 19 19 19 19 19 19
14 14 14 13 13 12 12 11 12 12 13 14 14 15 15 16 16 17 17 17 18 19 19 19 19 20 20 20 21 21 20 19 18 16 15 16 16 16 16 16 16 16 14 14 13 12 12 12 12 12 12 12 13 13 14 15 16 17 17 17 18 19 19 20 20 20 21 20 19 19 19 19 19 19 20 21 19 19 19 19 19 19 20 20 20 20 20 19
15 15 15 15 14 13 13 12 12 13 13 14 15 16 16 17 17 17 18 18 19 20 20 19 19 19 20 20 21 21 21 20 18 17 16 16 16 16 16 17 17 16 16 15 14 14 13 13 13 13 13 13 14 13 14 16 16 18 18 17 18 19 19 19 20 20 20 20 20 20 20 21 20 20 20 20 20 19 19 19 20 20 20 20 21 21 21 21
15 16 16 16 15 15 13 13 13 14 14 14 16 16 17 17 18 18 18 18 20 21 20 20 20 19 19 19 20 21 20 20 19 19 17 17 17 16 16 16 17 17 17 17 16 15 15 14 14 14 14 14 15 15 15 16 17 19 18 16 18 20 18 19 19 19 20 20 20 21 21 22 21 21 20 20 20 19 19 20 20 20 19 20 20 20 20 21
14 16 17 17 16 15 14 14 14 15 15 15 16 17 17 18 18 18 19 19 20 21 21 20 20 20 20 19 19 21 21 20 20 20 18 18 17 17 17 17 17 17 17 17 17 17 16 16 15 15 15 15 16 16 16 17 18 19 18 18 19 19 18 19 19 19 19 20 20 21 21 22 22 21 20 20 20 19 20 19 18 19 19 19 19 19 19 20
13 15 17 17 17 16 16 15 15 15 15 16 17 17 17 18 18 18 19 19 21 21 21 20 20 21 21 20 19 21 21 20 21 20 19 19 18 18 18 18 17 17 16 16 17 18 17 17 17 18 17 16 17 17 17 18 19 19 19 19 20 19 19 19 19 19 19 20 20 20 21 22 22 20 20 21 20 20 20 19 19 19 19 19 19 19 20 20
13 14 16 17 17 16 16 16 16 16 16 17 18 18 18 18 18 18 20 20 21 22 21 20 21 22 21 21 20 21 22 22 22 22 21 20 19 20 19 18 17 17 17 18 18 18 18 19 19 20 19 18 19 18 18 19 19 19 19 20 19 19 19 19 18 19 19 20 19 20 21 21 20 20 21 21 20 20 20 19 20 20 20 20 20 20 21 20
15 14 15 16 17 17 17 17 16 16 17 18 18 18 18 18 17 18 20 21 21 22 21 21 21 22 22 22 21 21 23 23 23 23 22 21 21 21 19 18 17 18 19 19 19 19 20 20 21 21 20 20 20 19 19 19 19 19 19 19 19 18 18 19 19 19 19 19 19 20 21 21 20 21 21 21 21 21 20 20 20 21 21 21 21 20 20 20
15 15 14 15 16 17 17 17 17 17 18 18 18 19 19 18 17 19 21 21 22 22 22 21 22 23 22 22 22 22 24 24 23 23 23 22 22 21 19 18 18 19 20 21 20 20 20 21 22 22 21 21 21 20 20 19 18 19 19 19 19 18 18 19 19 18 19 19 19 19 20 21 21 21 22 21 22 22 21 20 21 22 22 22 21 20 20 20
15 15 15 15 16 17 17 17 17 18 18 19 19 18 19 18 18 20 21 22 23 22 22 22 22 23 22 22 22 23 24 24 24 24 23 24 23 22 21 20 19 19 21 22 21 21 21 21 22 22 22 22 21 20 20 19 19 19 20 19 19 19 19 20 19 19 20 19 19 19 20 21 22 22 22 22 22 22 21 21 22 23 22 21 20 20 20 20
15 15 15 15 15 16 17 17 17 19 19 19 19 19 19 17 18 21 21 22 23 23 23 23 22 23 22 23 23 24 24 24 24 23 23 24 24 23 22 21 20 21 22 22 21 21 21 22 22 22 22 21 20 20 21 20 19 20 20 19 20 19 19 20 20 19 20 19 19 20 21 21 21 21 22 22 22 21 20 21 22 21 21 20 20 20 20 20
14 15 15 15 16 16 16 16 17 19 20 19 19 19 19 18 19 21 22 23 24 24 24 23 22 23 22 23 24 25 25 24 23 23 24 25 25 24 23 22 22 22 22 22 22 21 22 22 22 22 21 21 20 20 20 20 20 19 19 19 20 20 20 20 19 20 20 20 21 21 22 21 20 20 21 22 21 20 20 21 22 21 21 21 20 20 21 21
15 15 16 16 16 16 15 15 17 18 20 19 19 19 19 18 20 21 22 24 25 24 24 23 23 23 23 24 25 25 25 25 24 23 25 26 26 25 24 24 23 24 24 23 23 22 22 22 22 22 22 21 21 20 20 20 20 20 19 19 19 20 20 20 20 21 20 21 23 22 23 22 20 20 21 21 20 20 21 23 22 21 21 21 20 21 21 22
15 15 16 17 17 16 15 14 15 17 19 19 18 19 19 19 20 21 23 25 25 24 24 23 23 23 23 25 25 25 26 27 25 24 26 26 27 27 26 26 25 26 26 25 24 23 22 22 22 23 23 22 21 20 19 20 20 19 20 21 21 20 20 21 21 21 20 23 24 23 25 24 20 21 22 21 21 21 24 24 22 21 21 21 21 21 22 23
15 16 17 18 18 17 15 14 14 16 17 18 18 19 20 20 20 21 23 25 25 24 24 23 24 24 24 25 26 27 27 26 25 26 28 28 28 29 29 28 27 28 27 27 26 24 23 23 23 23 23 22 21 21 19 20 20 20 20 22 22 22 20 21 22 21 20 22 23 24 26 25 20 21 21 21 22 24 26 23 22 21 21 22 22 22 23 24
16 17 18 18 19 18 16 14 14 15 16 17 17 18 20 20 20 20 22 25 25 25 25 24 24 24 24 25 26 28 28 26 25 27 29 29 30 31 31 30 30 30 29 29 28 27 25 25 25 25 24 23 22 23 21 20 21 21 21 22 23 23 21 20 21 22 21 22 23 23 25 24 21 21 21 22 25 26 25 23 22 22 22 23 23 23 23 23
17 18 19 19 19 19 17 15 14 14 15 16 16 18 19 19 20 20 22 25 25 26 26 25 25 25 25 25 26 27 28 27 26 27 29 30 30 32 33 33 33 32 31 31 31 29 27 27 27 26 25 24 23 23 22 22 23 23 23 23 24 23 22 20 20 21 21 21 23 24 26 24 21 22 23 24 27 26 23 21 22 23 24 25 26 26 25 25
17 18 19 20 20 19 18 16 15 14 15 15 16 18 18 19 20 20 22 25 26 27 27 26 27 26 26 26 26 27 28 28 28 28 29 30 31 33 35 36 36 35 34 33 33 31 29 29 29 27 26 25 25 25 25 26 26 25 25 24 24 23 22 21 20 21 21 21 22 25 29 27 21 22 25 26 26 24 22 22 22 24 26 28 28 28 27 26
18 19 20 21 21 20 19 17 16 15 15 16 17 18 18 18 20 20 23 25 25 27 28 27 29 28 28 26 26 27 27 28 29 29 30 31 31 33 35 36 36 35 35 35 34 33 31 31 30 28 28 28 28 29 28 28 28 27 26 25 25 24 22 21 21 21 21 21 22 24 27 26 21 23 26 25 24 23 22 23 24 25 27 28 28 27 26 26
19 19 20 21 21 21 20 19 18 16 16 16 17 18 16 16 18 18 22 26 26 27 28 29 30 30 29 28 26 26 28 28 29 29 30 31 32 34 36 36 36 36 37 38 36 36 33 30 30 29 29 30 30 30 29 28 28 27 26 26 25 24 22 22 21 22 23 21 22 22 24 25 22 22 25 25 24 23 23 24 25 27 27 27 26 26 26 26
20 20 21 22 22 22 21 20 19 17 17 17 17 16 13 14 16 17 20 24 26 29 30 30 31 31 30 29 27 26 28 29 30 30 30 31 33 36 36 36 36 36 39 41 38 36 33 29 30 30 31 31 30 30 29 28 28 27 26 25 25 24 23 23 23 24 24 23 22 20 22 26 23 21 25 25 24 23 24 26 27 27 27 26 26 26 26 25
21 21 23 23 23 23 22 21 20 18 17 18 17 14 11 12 15 17 20 24 28 30 31 31 31 32 31 31 28 27 28 30 30 30 31 32 34 36 37 37 38 38 40 40 37 36 33 30 31 31 32 32 31 31 29 29 28 27 27 26 26 26 25 25 26 26 25 23 22 20 23 26 23 23 26 24 24 26 28 29 28 26 25 24 25 26 26 24
22 23 24 24 24 24 23 22 21 18 18 18 16 13 11 12 12 15 21 27 30 30 30 32 33 32 32 32 31 30 30 30 31 32 32 33 35 38 38 38 40 41 40 38 35 33 30 29 32 32 33 32 31 32 31 29 29 29 28 28 29 29 29 29 29 26 25 23 23 23 24 24 23 26 26 25 28 31 31 28 25 24 24 25 27 27 25 24
23 24 25 25 25 24 24 23 20 18 19 17 14 12 11 11 11 16 23 28 31 31 30 32 34 33 33 33 32 32 33 32 32 34 34 36 39 39 39 40 41 41 40 38 37 34 29 30 33 33 34 33 32 33 33 30 29 30 32 31 31 32 31 31 28 26 24 24 27 26 22 21 24 25 26 28 31 31 28 25 22 23 26 28 27 25 24 23
24 25 26 26 25 24 24 23 20 20 19 16 13 12 11 10 12 18 24 27 31 31 30 32 34 34 34 35 34 33 34 35 34 35 36 40 41 41 43 43 41 39 41 40 38 35 32 35 36 35 35 36 35 34 35 34 30 31 34 35 35 34 33 31 29 28 25 25 29 27 21 20 22 25 29 29 29 28 25 21 21 23 25 26 24 23 22 21
25 26 27 27 25 24 24 22 22 21 18 15 14 12 10 10 14 20 24 27 29 29 30 33 34 34 35 37 35 34 36 38 37 38 40 41 42 43 45 44 42 42 43 42 38 36 36 38 39 37 36 38 38 37 37 37 32 33 37 38 38 36 34 32 30 31 28 26 28 26 24 22 22 27 33 30 27 24 21 19 22 23 23 23 23 21 19 16
26 26 27 26 25 25 24 23 22 20 16 14 14 11 10 12 16 21 26 29 29 29 31 33 33 35 36 38 37 36 39 40 40 40 41 41 42 44 44 44 44 44 45 42 37 37 40 39 39 38 36 37 37 38 39 38 36 37 40 41 39 37 34 32 32 32 29 26 27 28 29 28 26 31 32 27 23 21 20 21 22 22 24 23 21 17 14 12
26 26 26 26 25 26 25 23 21 19 15 14 13 10 11 13 16 22 28 31 29 29 31 32 33 35 36 38 38 38 40 43 43 43 41 42 43 44 44 44 44 45 47 43 37 40 42 39 38 37 36 37 38 39 41 41 39 39 41 42 40 37 35 34 34 29 28 31 30 30 34 34 31 30 27 24 23 22 22 22 21 23 24 21 17 15 12 11
26 27 26 25 26 26 25 23 21 17 15 14 12 11 13 15 18 23 29 31 29 28 29 31 33 35 36 38 40 41 42 44 46 44 42 43 43 43 45 46 46 48 50 46 42 44 42 38 39 39 38 39 40 40 41 41 39 39 42 42 41 39 35 35 33 28 31 36 33 31 34 34 29 23 22 25 26 24 23 23 23 23 21 18 16 13 11 9
26 27 27 26 27 26 25 23 20 16 14 13 12 12 15 18 21 27 32 31 29 28 28 31 34 36 36 37 39 42 43 45 46 45 43 43 43 44 45 46 48 50 50 48 46 44 42 42 43 43 42 41 40 41 42 42 40 39 41 41 38 36 32 31 30 30 35 37 33 32 30 27 23 22 24 27 26 24 24 24 23 21 18 16 14 11 9 9
27 27 28 27 28 26 25 22 17 15 14 12 14 16 18 22 26 31 34 30 28 31 30 33 37 37 36 38 39 40 42 44 46 45 44 45 44 45 46 45 46 46 45 45 45 46 46 46 45 44 44 43 42 42 44 46 44 41 40 37 36 34 33 32 31 34 37 35 33 32 26 23 23 24 27 28 26 24 25 25 22 19 16 13 10 9 10 10
27 27 28 29 28 25 22 19 16 15 14 13 17 19 22 28 30 30 30 28 29 33 32 34 39 39 38 39 40 42 44 44 45 45 46 48 48 49 51 49 47 45 41 42 45 47 46 46 47 47 45 44 44 43 45 46 42 39 38 37 37 35 33 34 32 32 32 31 30 27 24 24 22 22 26 28 28 26 24 23 20 16 13 11 10 10 11 12
26 27 29 29 27 24 22 18 15 14 13 14 19 22 27 33 32 29 29 29 31 34 35 36 39 40 41 40 40 44 46 45 45 46 48 49 49 52 54 55 54 48 42 43 46 45 46 49 50 48 45 44 45 45 46 43 38 37 38 38 38 35 34 36 33 30 29 28 25 23 27 28 25 27 29 27 27 26 23 21 18 14 13 12 10 11 15 15
26 27 29 28 27 25 22 18 15 14 15 17 21 26 33 36 31 28 30 31 33 35 37 39 39 40 41 40 42 45 46 45 45 47 48 48 47 49 52 55 57 52 46 45 45 45 48 49 48 48 46 44 44 45 45 42 39 37 37 40 39 35 35 36 34 32 31 30 28 29 33 31 27 30 30 26 25 25 22 19 16 14 13 12 11 14 18 15
27 27 27 28 28 26 23 20 16 15 17 19 24 32 37 34 28 28 30 32 34 35 36 38 39 39 39 41 43 46 46 46 46 47 48 47 46 47 50 53 56 55 49 47 48 50 51 48 47 48 45 41 42 45 45 42 40 39 40 43 42 39 38 38 38 37 35 36 35 34 33 28 27 29 27 24 23 23 21 18 15 14 12 12 12 17 19 14
29 28 29 30 28 27 24 20 17 18 18 22 29 33 31 27 26 29 30 30 33 35 35 38 39 39 40 41 44 46 47 47 48 48 47 48 48 49 54 56 57 58 53 50 51 52 50 49 50 49 44 41 41 44 46 42 40 41 42 43 41 38 38 38 40 41 40 40 37 32 29 27 28 29 28 26 24 22 20 17 14 14 13 11 12 16 17 13
32 32 32 31 29 27 25 21 19 19 20 26 32 30 27 26 25 28 31 31 32 35 36 38 39 40 43 44 44 48 49 49 49 48 47 49 49 52 59 61 60 61 59 56 54 51 49 51 53 51 45 44 43 44 47 44 40 38 37 38 37 36 37 39 42 42 39 38 34 29 30 29 27 30 32 28 25 23 20 16 14 13 12 11 12 15 14 13
34 35 35 33 31 29 28 25 20 19 23 29 30 27 27 27 23 25 31 32 34 36 38 40 41 43 45 46 47 50 51 52 52 50 50 49 48 53 60 63 64 63 62 61 57 54 53 50 52 52 46 45 48 47 45 43 40 38 36 36 36 37 39 41 45 44 39 37 36 32 31 29 26 31 33 28 25 24 20 15 14 13 12 12 13 15 15 15
35 36 35 33 31 31 31 27 22 22 26 29 26 25 28 28 24 26 30 33 36 40 40 42 44 46 46 46 48 51 53 54 53 53 53 50 50 56 60 62 65 64 64 63 59 58 56 49 47 50 48 46 48 45 42 40 39 39 38 38 39 39 38 40 43 44 42 42 42 37 33 30 30 31 31 28 27 24 19 16 15 14 14 14 16 18 19 20
36 36 33 30 29 28 28 26 25 28 29 27 24 26 29 29 27 29 32 36 39 41 42 45 48 48 48 48 50 53 55 56 55 57 57 54 56 59 61 61 61 62 63 62 59 58 56 50 48 49 49 47 44 43 41 38 37 36 38 41 44 44 44 45 45 45 45 45 45 43 37 32 32 32 29 28 27 21 19 17 15 16 16 15 17 21 22 23
38 36 31 30 32 30 28 28 31 33 32 29 27 29 31 29 30 33 36 39 41 42 45 49 49 49 50 51 52 54 58 60 60 62 60 58 60 60 60 61 59 61 63 58 56 56 54 52 52 51 50 47 46 46 44 40 36 35 39 44 46 46 47 47 46 45 47 49 48 47 41 34 33 32 29 27 24 19 18 17 17 19 18 15 18 22 22 21
40 38 33 34 36 33 31 34 37 37 35 31 27 28 30 30 34 39 40 43 46 48 49 50 50 51 51 52 53 56 61 64 65 66 65 64 64 62 62 63 60 60 60 56 56 59 57 55 53 51 49 47 48 49 47 43 38 37 41 44 46 50 50 47 45 44 46 50 51 51 50 44 37 33 29 26 22 18 18 17 18 20 18 17 20 22 23 22
41 40 39 40 37 32 34 38 39 40 39 33 29 29 32 35 38 42 43 45 49 51 53 51 50 51 50 52 55 57 63 67 68 69 71 69 66 65 66 65 62 59 56 55 57 58 58 55 52 51 49 45 46 46 45 43 41 42 45 46 49 52 50 46 45 47 53 57 57 59 60 50 40 33 27 24 22 19 19 19 20 22 22 21 22 24 28 28
43 42 42 43 38 35 37 38 37 38 36 34 34 35 40 45 44 42 42 44 48 53 55 53 52 51 51 53 55 58 64 70 71 72 75 72 68 68 68 65 63 60 56 57 58 58 57 54 54 55 51 47 46 45 45 43 42 43 45 48 53 51 49 50 52 59 70 68 62 65 62 46 34 30 25 24 25 23 22 21 22 25 24 21 22 25 28 25
46 45 44 43 42 42 43 39 37 38 35 34 35 35 45 52 46 39 41 45 51 55 55 54 53 52 53 55 58 62 69 74 75 76 76 74 72 72 70 66 64 61 59 61 62 61 59 56 56 56 52 51 48 45 44 43 41 44 47 51 56 53 51 55 60 69 74 68 62 65 59 39 29 28 26 26 28 28 25 22 21 23 22 23 28 30 25 22
48 49 48 47 48 50 48 42 39 38 34 35 38 37 42 46 39 36 43 49 53 55 54 54 54 54 56 59 63 70 75 79 80 80 79 79 79 77 73 71 69 65 64 66 66 65 65 61 57 54 51 49 46 41 41 42 42 47 52 55 57 55 51 55 68 72 66 64 62 55 47 41 34 29 27 28 31 31 28 25 23 22 22 28 33 29 23 23
50 49 47 48 51 52 49 45 43 38 32 36 41 38 37 38 38 42 48 51 52 54 56 56 55 57 62 66 72 76 78 82 84 83 84 85 84 80 76 76 74 68 68 71 69 67 68 64 58 56 53 48 44 42 44 48 49 52 55 56 54 54 54 60 70 66 58 66 65 43 37 44 38 29 28 31 33 32 31 31 26 22 26 32 31 27 24 26
51 48 45 47 49 49 48 46 44 41 37 38 41 39 37 39 41 45 50 51 53 54 58 60 58 60 66 73 79 81 82 86 88 87 88 88 85 82 79 77 74 71 73 74 70 68 68 63 58 59 59 53 49 50 53 55 57 56 56 56 54 54 57 62 65 58 56 66 59 39 38 42 35 30 29 31 33 35 38 36 26 24 31 33 29 27 27 29
51 50 46 46 47 45 44 45 46 46 43 42 44 41 40 39 38 42 50 56 57 58 61 65 64 66 73 79 83 84 86 90 91 89 90 90 87 85 83 78 75 76 77 74 71 70 66 62 62 64 65 63 59 60 61 61 62 60 57 57 56 54 55 57 57 53 53 54 47 41 44 39 31 32 31 30 33 38 40 36 27 28 33 31 29 29 29 34
50 49 46 46 47 44 44 46 47 49 44 43 46 42 38 39 39 44 53 58 61 64 65 68 72 75 80 83 84 85 86 89 92 92 92 92 90 87 83 79 78 80 77 72 71 70 66 67 71 72 73 71 66 66 67 65 64 62 59 57 56 53 52 52 51 50 50 47 41 41 43 36 30 33 34 32 34 36 37 35 31 31 32 31 31 33 36 41
48 48 47 50 50 45 45 47 47 50 48 45 46 43 40 43 45 53 62 62 65 72 73 74 79 83 86 87 86 87 88 90 92 91 90 90 89 86 83 80 81 81 77 72 72 70 68 71 74 74 76 74 70 70 69 65 66 67 64 59 56 52 50 48 46 46 46 43 41 40 40 35 31 33 33 30 30 34 34 33 34 33 31 31 35 40 44 48
48 49 48 52 54 47 45 48 50 52 50 46 45 46 48 53 59 69 77 73 71 77 79 79 84 88 91 91 89 89 91 92 92 90 89 87 85 84 82 80 80 80 78 75 73 71 72 73 72 73 75 75 73 71 69 69 73 71 65 58 53 50 48 44 42 43 42 40 41 40 38 33 31 31 32 29 30 32 31 30 34 35 32 34 40 46 49 49